Content
SEND FEEDBACK

Daily
Averages
Monthly
Summary
United States of America

AGAT, GUAM


Home > North America > United States > Guam
Elevation: 110 meters     Latitude: 13 33N     Longitude: 144 50E

WEATHER
 
SELECT A DAY
Number of Records: 208,997;   Date Range: 1/1/95 - 7/26/14
 
SHARE

PRINT THIS DATA

[ ← Previous Day ]
WEATHER ALMANAC - 12 FEBRUARY, 2014
[ Next Day → ]
[ °F ]   °C
Weather ElementAverageHighLow
Temperature26.9 °C30 °C (11:54 am)23.3 °C (1:54 am)
Dewpoint21.4 °C22.2 °C (7:54 pm)20.6 °C (11:54 am)
Humidity72.3 %87 % (1:54 am)57 % (11:54 am)
Barometer1009.5 hPa1011.2 hPa (9:54 am)1008.1 hPa (2:54 am)
Wind Speed10.5 km/h18.5 km/h (1:54 pm)
Weather ElementAverage
Visibility16.1 km
Wind DirectionENE (79.6 °)

Weather ElementTotal
Precipitation---
Cooling Degree Days8.3 (Base 18.3)
Growing Degree Days16.7 (Base 10)
Averaged from 23 records on 12 February, 2014
WEATHER CONDITIONS BREAKOUT
WIND DIRECTION BREAKOUT
WEATHER BY HOUR - 12 FEBRUARY, 2014
[ °F ]   °C
Local TimeTemperatureDewpointHumidityBarometerVisibilityWind DirectionWind SpeedGust SpeedPrecipitationEventsConditions
1:54 AM23.3 °C21.1 °C87 %1008.5 hPa16.1 kmCalmMostly Cloudy
2:54 AM25 °C21.7 °C82 %1008.1 hPa16.1 kmEast (80°)7.4 km/hMostly Cloudy
3:54 AM24.4 °C21.1 °C82 %1008.1 hPa16.1 kmEast (100°)5.6 km/hClear
4:54 AM23.9 °C21.1 °C84 %1008.8 hPa16.1 kmEast (100°)5.6 km/hClear
5:54 AM23.9 °C21.1 °C84 %1009.1 hPa16.1 kmEast (80°)5.6 km/hClear
6:54 AM24.4 °C21.1 °C82 %1009.8 hPa16.1 kmEast (90°)7.4 km/hClear
7:54 AM26.1 °C21.7 °C77 %1010.2 hPa16.1 kmEast (90°)11.1 km/hClear
8:54 AM27.8 °C21.7 °C69 %1010.5 hPa16.1 kmEast (90°)11.1 km/hClear
9:54 AM28.9 °C21.7 °C65 %1011.2 hPa16.1 kmEast (90°)16.7 km/hPartly Cloudy
10:54 AM28.9 °C21.1 °C63 %1010.8 hPa16.1 kmEast (90°)11.1 km/hPartly Cloudy
11:54 AM30 °C20.6 °C57 %1010.2 hPa16.1 kmEast (80°)13 km/hPartly Cloudy
12:54 PM30 °C20.6 °C57 %1009.1 hPa16.1 kmEast (80°)16.7 km/hPartly Cloudy
1:54 PM29.4 °C20.6 °C59 %1008.5 hPa16.1 kmEast (80°)18.5 km/hPartly Cloudy
2:54 PM29.4 °C21.1 °C61 %1008.1 hPa16.1 kmESE (110°)16.7 km/hPartly Cloudy
3:54 PM28.9 °C20.6 °C61 %1008.5 hPa16.1 kmESE (110°)13 km/hPartly Cloudy
4:54 PM28.9 °C21.1 °C63 %1008.8 hPa16.1 kmEast (90°)13 km/hPartly Cloudy
5:54 PM27.8 °C21.7 °C69 %1009.1 hPa16.1 kmEast (90°)11.1 km/hOvercast
6:54 PM27.2 °C21.7 °C72 %1009.8 hPa16.1 kmNE (50°)9.3 km/hScattered Clouds
7:54 PM26.1 °C22.2 °C79 %1010.5 hPa16.1 kmNE (50°)7.4 km/hPartly Cloudy
8:54 PM26.1 °C22.2 °C79 %1010.8 hPa16.1 kmNE (50°)11.1 km/hPartly Cloudy
9:54 PM26.7 °C22.2 °C76 %1010.8 hPa16.1 kmEast (80°)9.3 km/hClear
10:54 PM26.1 °C22.2 °C79 %1010.8 hPa16.1 kmEast (90°)7.4 km/hPartly Cloudy
11:54 PM26.7 °C22.2 °C76 %1011.2 hPa16.1 kmENE (60°)11.1 km/hOvercast
Hourly data recorded from PGUM, located 0 kilometers away from Agat, Guam







STORIES FROM OUR PARTNERS